#timestamp,LO_Frequency,Hit,StdDev 
1626325215.9,286046997.5,N
1626325235.7,286046995.3,Y
1626325255.6,286046996.9,P
1626325275.4,286046997.9,N
1626325295.2,286046995.8,P
1626325315.1,286046995.5,Y
1626325316.0,286046995.5,P
1626325335.8,286046996.8,P
1626325355.7,286046998.7,N
1626325375.5,286046998.3,N
1626325395.3,286046998.8,N
1626325415.2,286046999.0,N
1626325435.0,286046998.8,N
1626325435.9,286046998.8,N
1626325455.7,286046997.2,N
1626325475.6,286046995.9,Y
1626325495.4,286047001.2,P
1626325515.3,286046998.7,N
1626325535.1,286047002.6,N
1626325536.0,286047002.6,N
1626325555.8,286047002.7,N
1626325575.7,286047002.0,N
1626325595.5,286047001.4,N
1626325615.3,286047002.1,N
1626325635.2,286047004.2,N
1626325655.0,286047002.5,N
1626325655.9,286047002.5,N
1626325675.8,286047002.4,N
1626325695.6,286047002.6,N
1626325715.4,286047002.6,N
1626325735.3,286047004.3,N
1626325755.1,286047004.2,N
1626325775.9,286047001.7,N
1626325795.7,286047003.6,N
1626325815.5,286047003.8,N
1626325835.4,286047003.6,N
1626325855.3,286047005.1,Y
1626325875.1,286047003.1,P
1626325895.9,286047003.5,P
1626325915.7,286047005.1,P
1626325935.5,286047007.6,Y
1626325955.4,286047001.4,P
1626325975.2,286047001.5,N
1626325995.0,286047003.9,P
1626325995.9,286047003.9,Y
1626326015.8,286047002.6,P
1626326035.6,286047000.1,P
1626326055.5,286047002.5,N
1626326075.3,286047004.4,Y
1626326095.1,286047000.8,P
1626326115.9,286046998.9,N
1626326135.9,286046998.4,N
1626326155.7,286046998.9,N
1626326175.5,286047000.4,N
1626326195.4,286047001.2,N
1626326215.2,286047001.1,N
1626326235.0,286047000.1,N
1626326236.0,286047000.1,N
1626326255.8,286047000.6,N
1626326275.6,286046999.0,N
1626326295.5,286046999.2,N
1626326315.3,286046999.6,N
1626326335.2,286046999.0,N
1626326355.9,286046999.3,N
1626326375.7,286046996.7,Y
1626326395.6,286046997.1,P
1626326415.4,286046998.8,N
1626326435.2,286046999.0,N
1626326455.1,286046998.3,N
1626326456.0,286046998.3,N
1626326475.8,286047001.1,N
1626326495.7,286047001.2,N
1626326515.5,286046998.3,N
1626326535.3,286046998.4,N
1626326555.2,286046998.2,N
1626326575.0,286046998.7,N
1626326575.9,286046998.7,N
1626326595.7,286046998.4,N
1626326615.6,286046998.9,N
1626326635.4,286046999.1,N
1626326655.3,286046998.4,N
1626326675.1,286046998.5,N
1626326676.0,286046998.5,N
1626326695.8,286046998.3,N
1626326715.7,286046998.1,N
1626326735.5,286047000.1,N
1626326755.3,286047000.0,N
1626326775.2,286046998.8,N
1626326795.0,286046996.9,Y
1626326795.9,286046996.9,P
1626326815.8,286047000.5,N
1626326835.6,286046999.8,N
1626326855.4,286046999.8,N
1626326875.3,286046999.9,N
1626326895.1,286047001.7,N
1626326915.9,286047001.6,N
1626326935.7,286047001.4,N
1626326955.5,286047001.4,N
1626326975.4,286047003.6,N
1626326995.2,286047004.0,N
1626327015.0,286047003.9,N
1626327015.9,286047003.9,N
1626327035.8,286047002.2,N
1626327055.6,286047002.4,N
1626327075.5,286047001.8,N
1626327095.3,286047004.1,N
1626327115.1,286047003.2,N
1626327135.9,286047003.6,N
1626327155.7,286047001.7,N
1626327175.5,286047002.6,N
1626327195.4,286047002.9,N
1626327215.2,286047003.2,N
1626327235.1,286047002.2,N
1626327236.0,286047002.2,N
1626327255.8,286047000.0,N
1626327275.6,286047000.4,N
1626327295.5,286046998.2,N
1626327315.3,286046998.1,N
1626327335.1,286047000.7,N
1626327355.9,286046998.2,N
1626327375.7,286047000.8,N
1626327395.6,286046999.7,N
1626327415.4,286047002.3,N
1626327435.2,286047000.1,N
1626327455.1,286046999.9,N
1626327456.0,286046999.9,N
1626327475.8,286046998.3,N
1626327495.7,286046999.2,N
1626327515.5,286046999.5,N
1626327535.3,286046995.3,N
1626327555.2,286046994.1,N
1626327575.0,286046992.2,Y
1626327575.9,286046992.2,P
1626327595.8,286046990.9,N
1626327615.6,286046990.4,N
1626327635.3,286046991.3,N
1626327655.1,286046989.5,N
1626327675.9,286046987.3,Y
1626327695.7,286046995.8,P
1626327715.5,286046993.3,P
1626327735.4,286046993.3,P
1626327755.2,286046993.7,Y
1626327775.0,286047000.9,P
1626327775.9,286047000.9,N
1626327795.8,286046998.6,N
1626327815.6,286047001.2,N
1626327835.5,286047001.2,N
1626327855.3,286046998.8,N
1626327875.1,286046996.8,N
1626327895.9,286046997.6,N
1626327915.7,286046997.6,N
1626327935.6,286046996.7,N
1626327955.4,286047000.4,N
1626327975.2,286047001.2,N
1626327995.1,286047001.0,N
1626327996.0,286047001.0,N
1626328015.8,286047000.2,N
1626328035.7,286046999.9,N
1626328055.5,286047002.4,N
1626328075.3,286047000.0,N
1626328095.2,286047001.0,N
1626328115.0,286046996.9,N
1626328115.9,286046996.9,N
1626328135.7,286046997.9,N
1626328155.6,286046995.3,N
1626328175.4,286046996.4,N
1626328195.3,286046996.4,N
1626328215.1,286046994.6,N
1626328216.0,286046994.6,N
1626328235.8,286046994.6,N
1626328255.7,286046994.5,N
1626328275.5,286046996.0,N
1626328295.3,286046995.7,N
1626328315.2,286046994.9,N
1626328335.0,286046996.2,N
1626328335.9,286046996.2,N
1626328355.8,286046996.4,N
1626328375.6,286046994.0,N
1626328395.4,286046994.6,N
1626328415.3,286046995.6,N
1626328435.1,286046995.8,N
1626328455.9,286046995.5,N
1626328475.7,286046996.0,N
1626328495.5,286046996.4,N
1626328515.4,286046994.3,N
1626328535.2,286046994.6,N
1626328555.1,286046994.7,N
1626328556.0,286046994.7,N
1626328575.8,286046994.7,N
1626328595.7,286046994.4,Y
1626328615.5,286046999.6,P
1626328635.3,286046996.6,N
1626328655.2,286046999.5,N
1626328675.0,286046999.5,N
1626328675.9,286046999.5,N
1626328695.8,286046997.3,N
1626328715.6,286046997.6,N
1626328735.4,286046997.5,N
1626328755.3,286046996.7,N
1626328775.1,286046998.0,N
1626328795.8,286046995.1,Y
